User: anonymous   Login
Location: Newark
(13.5236°S, 71.9791°W)
Time: 05:25:56
(UTC+00:00)
Language:

BEESAT 2 - Orbit

View from above orbital plane
View from above orbital plane
View from above satellite
View from above satellite

Ground track
Ground track

The orbit data is extracted from the following two-line orbital elements,

1 39136U 13015G   19260.82412611  .00000574  00000-0  38767-4 0  9996
2 39136  64.8682 108.8254 0025001 303.8994  55.9753 15.17016392353998
Epoch (UTC): 17 September 2019 19:46:44
Eccentricity: 0.0025001
inclination: 64.8682°
perigee height: 497 km
apogee height: 532 km
right ascension of ascending node: 108.8254°
argument of perigee: 303.8994°
revolutions per day: 15.17016392
mean anomaly at epoch: 55.9753°
orbit number at epoch: 35399

The dashed part of the orbit path shows where the satellite is in the earth's shadow,  

DLR